Location: Trois-Rivi�res
(46.3500°N, 72.5500°W)
Time: 19:02:25
(UTC-04:00)

Tiangong 2 - Pass Details

Date: 10 October 2017
Orbit: 388 x 391 km, 42.8° (Epoch: 22 October)

Event Time Altitude Azimuth Distance (km) Brightness Sun altitude
Exits shadow 05:33:40 16° 198° (SSW) 1,106 3.1 -15.8°
Maximum altitude 05:35:11 22° 159° (SSE) 898 3.1 -15.6°
Drops below altitude 10° 05:37:46 10° 105° (ESE) 1,423 5.1 -15.1°
Sets 05:40:07 0° 90° (E) 2,281 6.9 -14.7°
